Weather History for KONT - November, 2012

Change the Weather History Date:

Saturday, November 10, 2012

  Actual Average Record
Temperature  
Mean Temperature 53 °F 62 °F  
Max Temperature 62 °F 75 °F 89 °F (2010)
Min Temperature 43 °F 48 °F 41 °F (1952)
Degree Days  
Heating Degree Days 12 4  
Month to date heating degree days 33 35  
Since 1 July heating degree days 43 80  
Cooling Degree Days 0 1  
Month to date cooling degree days 27 14  
Year to date cooling degree days 2157 1697  
Growing Degree Days 3 (Base 50)    
Moisture  
Dew Point 35 °F    
Average Humidity 53    
Maximum Humidity 83    
Minimum Humidity 22    
Precipitation  
Precipitation 0.00 in 0.05 in 0.01 in (2005)
Month to date precipitation 0.15 0.47  
Year to date precipitation 5.86 11.98  
Since 1 July precipitation 0.37 1.60  
Snow  
Snow 0.00 in - - ()
Month to date snowfall 0.0  
Year to date snowfall 0.0  
Since 1 July snowfall 0.0  
Snow Depth 0.00 in    
Sea Level Pressure  
Sea Level Pressure 30.02 in    
Wind  
Wind Speed 4 mph (West)    
Max Wind Speed 21 mph    
Max Gust Speed 31 mph    
Visibility 10 miles    
Events      
T = Trace of Precipitation, MM = Missing Value Source: NWS Daily Summary

Daily Weather History Graph

Daily Weather History Graph

Search for Another Location

Airport or City:

Trip Planner

Search our weather history database for the weather conditions in past years. The results will help you decide how hot, cold, wet, or windy it might be!

Date:

Astronomy

Nov. 10, 2012 Rise Set
Actual Time 6:18 AM PST 4:49 PM PST
Civil Twilight 5:52 AM PST 5:15 PM PST
Nautical Twilight 5:22 AM PST 5:45 PM PST
Astronomical Twilight 4:52 AM PST 6:15 PM PST
Moon 2:37 AM PST (11/10) 2:31 PM PST (11/10)
Length of Visible Light 11h 23m
Length of Day
10h 30m
Waning Crescent, 13% of the Moon is Illuminated
Nov 10
Waning Crescent
Nov 13
New
Nov 20
First Quarter
Nov 28
Full
Dec 6
Last Quarter

Hourly Weather History & Observations

Time (PST) Temp. Windchill Dew Point Humidity Pressure Visibility Wind Dir Wind Speed Gust Speed Precip Events Conditions
12:35 AM 48.2 °F - 42.8 °F 82% 29.94 in 10.0 mi Calm Calm - N/A   Mostly Cloudy
12:46 AM 48.2 °F - 41.0 °F 76% 29.94 in 10.0 mi Calm Calm - N/A   Scattered Clouds
12:53 AM 48.0 °F - 41.0 °F 77% 29.94 in 10.0 mi Calm Calm - N/A   Mostly Cloudy
1:53 AM 48.0 °F - 42.1 °F 80% 29.94 in 10.0 mi Calm Calm - N/A   Mostly Cloudy
2:53 AM 50.0 °F - 42.1 °F 74% 29.94 in 10.0 mi SW 3.5 mph - N/A   Mostly Cloudy
3:53 AM 48.2 °F - 42.8 °F 82% 29.95 in 10.0 mi Calm Calm - N/A   Scattered Clouds
4:53 AM 45.0 °F - 39.9 °F 82% 29.97 in 10.0 mi Calm Calm - N/A   Partly Cloudy
5:53 AM 46.0 °F - 41.0 °F 83% 29.99 in 10.0 mi North - - N/A   Partly Cloudy
6:53 AM 46.0 °F - 41.0 °F 83% 30.01 in 10.0 mi Calm Calm - N/A   Partly Cloudy
7:53 AM 50.0 °F - 42.1 °F 74% 30.04 in 10.0 mi Calm Calm - N/A   Partly Cloudy
8:53 AM 52.0 °F - 42.1 °F 69% 30.05 in 10.0 mi SW 6.9 mph - N/A   Partly Cloudy
9:53 AM 54.0 °F - 39.0 °F 57% 30.05 in 10.0 mi Calm Calm - N/A   Partly Cloudy
10:53 AM 57.0 °F - 33.1 °F 40% 30.05 in 10.0 mi WSW 11.5 mph - N/A   Partly Cloudy
11:53 AM 57.9 °F - 26.1 °F 30% 30.03 in 10.0 mi West 9.2 mph 18.4 mph N/A   Scattered Clouds
12:53 PM 61.0 °F - 21.9 °F 22% 30.00 in 10.0 mi West 10.4 mph - N/A   Partly Cloudy
1:53 PM 61.0 °F - 21.9 °F 22% 29.98 in 10.0 mi SW 11.5 mph 23.0 mph N/A   Partly Cloudy
2:53 PM 60.1 °F - 26.1 °F 27% 29.98 in 10.0 mi WSW 12.7 mph 24.2 mph N/A   Partly Cloudy
3:53 PM 57.9 °F - 28.0 °F 32% 30.01 in 10.0 mi West 18.4 mph 26.5 mph N/A   Partly Cloudy
4:53 PM 55.9 °F - 30.0 °F 37% 30.04 in 10.0 mi West 18.4 mph - N/A   Partly Cloudy
5:53 PM 54.0 °F - 34.0 °F 47% 30.05 in 10.0 mi WSW 10.4 mph 19.6 mph N/A   Partly Cloudy
6:53 PM 52.0 °F - 36.0 °F 54% 30.07 in 10.0 mi West 9.2 mph - N/A   Partly Cloudy
7:53 PM 51.8 °F - 24.8 °F 35% 30.08 in 10.0 mi West 5.8 mph - N/A   Partly Cloudy
8:53 PM 48.2 °F - 28.4 °F 46% 30.11 in 10.0 mi Calm Calm - N/A   Partly Cloudy
9:53 PM 46.9 °F - 34.0 °F 61% 30.13 in 10.0 mi NNE 4.6 mph - N/A   Partly Cloudy
10:53 PM 46.9 °F - 30.0 °F 52% 30.14 in 10.0 mi ENE 3.5 mph - N/A   Clear
11:53 PM 46.0 °F 43.9 °F 28.9 °F 51% 30.15 in 10.0 mi NE 4.6 mph - N/A   Clear